Вернуться в каталог

USA 57

АктивенВоенныеPO
NORAD 20561·PAYLOAD·🇺🇸 United States

Запущен Apr 11, 1990 с Vandenberg Space Force Base

Loading…

Ближайшие Пролёты (ближайшие 24 часа)

TLE

СвежийSource: Space-Track

Эпоха: Sep 14, 2026, 10:51 UTC

1 20561U 90031B   26257.45260793  .00000387  00000-0  54956-4 0  9996
2 20561  89.8454 263.1398 0068930 100.8487 260.0501 14.73314914128327

Отслеживайте USA 57 в реальном времени с AllMySat

Download on the App Store